Date String (YYYY-MM-DD hh:mm:ss) UTC,Instrument flags,absolute air pressure of the measurement (hPa),sample flow rate (lpm),inlet stack bypass flow (lpm),air temperature of the measurement (°C),ambient temperature measured by the external sensor (°C),aerosol sample conditioner tube jacket temperature (°C),OPC LED temperature (°C),internal box temperature (°C),relative humidity of the measurement (%),span deviation,mass concentration of particles derived from Lorenz-Mie calculation of OPC scattering (μg/m³),mass concentration of particles derived from Lorenz-Mie calculation of OPC scattering (μg/m³),mass concentration of particles derived from Lorenz-Mie calculation of OPC scattering (μg/m³)
DateTimeUTC,F1_M11,P_M11,Q1_M11,Q2_M11,T1_M11,T2_M11,T3_M11,T4_M11,T5_M11,U1_M11,ZSPAN_M11,X0_M11,X2_M11,X1_M11
2023-12-14 15:00:00,SystemResetWarning,0834.0,5.00,000.00,018.7,017.7,000.0,027.1,020.0,23.1,0000.3,0028.54,0019.77,0018.67
2023-12-14 15:01:00,SystemResetWarning,0833.9,5.00,000.00,018.7,017.7,000.0,027.1,020.0,23.1,0000.4,0028.28,0019.80,0018.67
2023-12-14 15:02:00,SystemResetWarning,0833.9,5.01,000.00,018.7,017.6,000.0,027.1,020.0,23.1,0000.5,0028.47,0019.87,0018.66
2023-12-14 15:03:00,SystemResetWarning,0833.9,5.00,000.00,018.7,017.7,000.0,027.1,020.0,23.1,0000.5,0027.95,0019.92,0018.68
2023-12-14 15:04:00,SystemResetWarning,0833.9,4.99,000.00,018.7,017.7,000.0,027.1,020.0,23.1,0000.4,0027.91,0020.02,0018.75
2023-12-14 15:05:00,SystemResetWarning,0833.9,4.99,000.00,018.7,017.7,000.0,027.1,020.0,23.1,0000.5,0027.92,0020.13,0018.82
2023-12-14 15:06:00,SystemResetWarning,0833.8,5.01,000.00,018.7,017.7,000.0,027.1,020.0,23.0,0000.7,0027.88,0020.24,0018.88
2023-12-14 15:07:00,SystemResetWarning,0833.8,5.01,000.00,018.7,017.7,000.0,027.1,020.0,22.9,0000.5,0027.76,0020.24,0018.90
2023-12-14 15:08:00,SystemResetWarning,0833.8,5.01,000.00,018.7,017.7,000.0,027.1,020.0,23.0,0000.4,0027.87,0020.27,0018.92
2023-12-14 15:09:00,SystemResetWarning,0833.8,5.00,000.00,018.7,017.7,000.0,027.1,020.0,23.0,0000.4,0027.75,0020.26,0018.94
2023-12-14 15:10:00,SystemResetWarning,0833.8,5.00,000.00,018.7,017.7,000.0,027.1,020.0,23.0,0000.3,0027.44,0020.31,0018.97
2023-12-14 15:11:00,SystemResetWarning,0833.8,5.00,000.00,018.7,017.7,000.0,027.1,020.0,22.9,0000.2,0027.08,0020.31,0018.98
2023-12-14 15:12:00,SystemResetWarning,0833.8,4.99,000.00,018.7,017.7,000.0,027.1,020.0,22.8,0000.1,0026.69,0020.26,0018.99
2023-12-14 15:13:00,SystemResetWarning,0833.8,4.99,000.00,018.7,017.6,000.0,027.1,020.0,22.6,0000.1,0026.39,0020.18,0018.98
2023-12-14 15:14:00,SystemResetWarning,0833.8,4.99,000.00,018.7,017.6,000.0,027.1,020.0,22.4,0000.0,0026.84,0020.10,0018.91
2023-12-14 15:15:00,SystemResetWarning,0833.8,5.00,000.00,018.7,017.6,000.0,027.1,020.0,22.3,0000.3,0026.48,0019.90,0018.79
2023-12-14 15:16:00,SystemResetWarning,0833.8,5.00,000.00,018.7,017.6,000.0,027.1,020.0,22.2,0000.3,0026.26,0019.71,0018.67
2023-12-14 15:17:00,SystemResetWarning,0833.7,5.01,000.00,018.7,017.6,000.0,027.1,020.0,22.1,0000.3,0025.97,0019.47,0018.52
2023-12-14 15:18:00,SystemResetWarning,0833.7,5.01,000.00,018.7,017.6,000.0,027.1,020.0,22.0,0000.3,0026.29,0019.34,0018.41
2023-12-14 15:19:00,SystemResetWarning,0833.8,5.00,000.00,018.7,017.6,000.0,027.1,020.0,22.0,0000.4,0026.58,0019.22,0018.32
2023-12-14 15:20:00,SystemResetWarning,0833.8,5.00,000.00,018.7,017.6,000.0,027.1,020.0,21.9,0000.5,0026.35,0019.08,0018.19
2023-12-14 15:21:00,SystemResetWarning,0833.8,5.00,000.00,018.7,017.6,000.0,027.1,020.0,21.9,0000.4,0026.12,0018.92,0018.08
2023-12-14 15:22:00,SystemResetWarning,0833.7,4.99,000.00,018.7,017.7,000.0,027.1,020.0,22.0,0000.4,0026.06,0018.82,0017.99
2023-12-14 15:23:00,SystemResetWarning,0833.7,5.00,000.00,018.7,017.6,000.0,027.1,020.0,22.2,0000.5,0026.13,0018.69,0017.87
2023-12-14 15:24:00,SystemResetWarning,0833.7,5.01,000.00,018.7,017.6,000.0,027.1,020.0,22.4,0000.5,0028.31,0018.69,0017.83
2023-12-14 15:25:00,SystemResetWarning,0833.7,5.00,000.00,018.7,017.6,000.0,027.1,020.0,22.4,0000.6,0028.22,0018.78,0017.88
2023-12-14 15:26:00,SystemResetWarning,0833.6,5.01,000.00,018.7,017.6,000.0,027.1,020.0,22.4,0000.6,0028.33,0018.92,0018.01
2023-12-14 15:27:00,SystemResetWarning,0833.7,5.01,000.00,018.7,017.6,000.0,027.1,020.0,22.5,0000.5,0028.84,0019.10,0018.15
2023-12-14 15:28:00,SystemResetWarning,0833.7,4.99,000.00,018.7,017.6,000.0,027.1,020.0,22.7,0000.6,0029.32,0019.38,0018.35
2023-12-14 15:29:00,SystemResetWarning,0833.7,4.99,000.00,018.7,017.6,000.0,027.1,020.0,22.7,0000.6,0029.52,0019.66,0018.55
2023-12-14 15:30:00,SystemResetWarning,0833.7,5.01,000.00,018.7,017.6,000.0,027.1,020.0,22.5,0000.6,0029.46,0019.85,0018.70
2023-12-14 15:31:00,SystemResetWarning,0833.6,5.00,000.00,018.7,017.6,000.0,027.1,020.0,22.3,0000.6,0029.62,0019.98,0018.84
2023-12-14 15:32:00,SystemResetWarning,0833.6,5.00,000.00,018.7,017.6,000.0,027.1,020.0,22.4,0000.7,0030.09,0020.12,0018.94
2023-12-14 15:33:00,SystemResetWarning,0833.6,5.00,000.00,018.7,017.6,000.0,027.1,020.2,22.5,0000.8,0030.07,0020.16,0019.02
2023-12-14 15:34:00,SystemResetWarning,0833.6,5.00,000.00,018.8,018.1,000.0,027.1,020.6,22.4,0000.8,0030.08,0020.29,0019.13
2023-12-14 15:35:00,SystemResetWarning,0833.5,5.00,000.00,018.9,018.8,000.0,027.1,020.9,22.4,0000.8,0029.19,0020.39,0019.23
2023-12-14 15:36:00,SystemResetWarning,0833.5,4.99,000.00,019.0,018.8,000.0,027.1,020.6,22.3,0000.7,0028.88,0020.37,0019.24
2023-12-14 15:37:00,SystemResetWarning,0833.4,4.99,000.00,019.0,018.7,000.0,027.2,020.4,22.3,0000.5,0028.99,0020.34,0019.22
2023-12-14 15:38:00,SystemResetWarning,0833.4,5.01,000.00,019.0,018.6,000.0,027.2,020.4,22.4,0000.4,0029.12,0020.30,0019.20
2023-12-14 15:39:00,SystemResetWarning,0833.4,5.01,000.00,018.9,018.5,000.0,027.2,020.2,22.4,0000.4,0029.26,0020.25,0019.20
2023-12-14 15:40:00,SystemResetWarning,0833.6,5.00,000.00,018.9,018.4,000.0,027.2,020.1,22.3,0000.3,0030.87,0020.21,0019.14
2023-12-14 15:41:00,SystemResetWarning,0833.5,5.00,000.00,018.9,018.3,000.0,027.2,020.0,22.1,0000.3,0031.28,0020.17,0019.10
2023-12-14 15:42:00,SystemResetWarning,0833.4,5.00,000.00,018.8,018.3,000.0,027.2,020.0,22.1,0000.3,0031.40,0020.14,0019.08
2023-12-14 15:43:00,SystemResetWarning,0833.4,5.00,000.00,018.8,018.2,000.0,027.2,020.0,22.0,0000.2,0031.82,0020.12,0019.06
2023-12-14 15:44:00,SystemResetWarning,0833.4,5.00,000.00,018.8,018.1,000.0,027.2,020.0,21.9,0000.2,0031.63,0020.15,0019.06
2023-12-14 15:45:00,SystemResetWarning,0833.4,5.00,000.00,018.8,018.1,000.0,027.2,020.0,21.9,0000.0,0031.76,0020.17,0019.05
2023-12-14 15:46:00,SystemResetWarning,0833.4,5.00,000.00,018.8,018.0,000.0,027.2,020.0,21.9,-000.1,0031.40,0020.13,0019.04
2023-12-14 15:47:00,SystemResetWarning,0833.4,4.99,000.00,018.8,018.0,000.0,027.2,020.0,21.9,0000.1,0030.87,0020.11,0019.05
2023-12-14 15:48:00,SystemResetWarning,0833.4,5.00,000.00,018.8,018.0,000.0,027.2,020.0,22.0,0000.2,0031.31,0020.11,0019.03
2023-12-14 15:49:00,SystemResetWarning,0833.3,5.00,000.00,018.8,018.0,000.0,027.2,020.0,22.0,0000.4,0031.07,0020.13,0019.00
2023-12-14 15:50:00,SystemResetWarning,0833.3,5.00,000.00,018.8,017.9,000.0,027.2,020.0,22.1,0000.4,0030.73,0020.10,0018.96
2023-12-14 15:51:00,SystemResetWarning,0833.3,5.00,000.00,018.8,017.9,000.0,027.2,020.0,22.2,0000.5,0028.93,0019.99,0018.94
2023-12-14 15:52:00,SystemResetWarning,0833.3,5.00,000.00,018.8,017.9,000.0,027.2,020.0,22.3,0000.6,0028.01,0019.91,0018.92
2023-12-14 15:53:00,SystemResetWarning,0833.4,5.00,000.00,018.7,017.9,000.0,027.2,020.0,22.2,0000.6,0027.81,0019.87,0018.90
2023-12-14 15:54:00,SystemResetWarning,0833.4,5.00,000.00,018.8,017.9,000.0,027.2,020.0,22.0,0000.6,0027.89,0019.84,0018.85
2023-12-14 15:55:00,SystemResetWarning,0833.3,5.00,000.00,018.8,017.9,000.0,027.2,020.0,21.8,0000.4,0027.90,0019.76,0018.79
2023-12-14 15:56:00,SystemResetWarning,0833.3,5.00,000.00,018.8,017.9,000.0,027.2,020.0,21.8,0000.5,0027.66,0019.60,0018.70
2023-12-14 15:57:00,SystemResetWarning,0833.2,5.00,000.00,018.7,017.9,000.0,027.2,020.0,21.9,0000.4,0027.47,0019.44,0018.56
2023-12-14 15:58:00,SystemResetWarning,0833.2,5.00,000.00,018.7,017.9,000.0,027.2,020.0,21.9,0000.4,0027.24,0019.30,0018.42
2023-12-14 15:59:00,SystemResetWarning,0833.2,5.00,000.00,018.8,017.8,000.0,027.2,020.0,21.8,0000.4,0026.57,0019.16,0018.35
